Вернуться в каталог

STARLINK-3133

АктивенСвязьVLEO
NORAD 49416·PAYLOAD·🇺🇸 United States

Запущен Nov 13, 2021 с Cape Canaveral Space Force Station

Loading…

Ближайшие Пролёты (ближайшие 24 часа)

TLE

СвежийSource: CelesTrak SupGP

Эпоха: Sep 15, 2026, 01:17 UTC

1 49416C 21104J   26258.05395833  .00017192  00000+0  50803-3 0  2587
2 49416  53.1589  86.8339 0001206  80.2742 270.6171 15.34376780    15

Отслеживайте STARLINK-3133 в реальном времени с AllMySat

Download on the App Store